Location: Detroit
(42.3310°N, 83.0460°W)
Time: 23:49:35
(UTC-04:00)

A-11 Canister half - Pass Details

Date: 15 February 2023
Orbit: 1526 x 1682 km, 47.3° (Epoch: 20 March)

Event Time Altitude Azimuth Distance (km) Brightness Sun altitude
Rises 03:26:39 0° 239° (WSW) 4,716 - -44.4°
Reaches altitude 10° 03:29:43 10° 239° (WSW) 3,719 - -43.9°
Maximum altitude 03:39:05 84° 153° (SSE) 1,538 - -42.4°
Exits shadow 03:41:06 61° 73° (ENE) 1,702 9.2 -42.0°
Drops below altitude 10° 03:48:25 10° 66° (ENE) 3,701 11.7 -40.8°
Sets 03:51:28 0° 66° (ENE) 4,692 12.4 -40.3°
